| time (UTC) | temp C | wind direction | speed KPH | gust KPH | rain 1hr cm | rain 24hr cm | rain mn cm | humidity % | barometer mb |
| 20260506081416 | 11 | 345 | 8.0 | 14.5 | 0.00 | 0.00 | 0.00 | 80 | 1012.5 |
| 20260506081224 | 11 | 9 | 6.4 | 11.3 | 0.00 | 0.00 | 0.00 | 81 | 1012.6 |
| 20260506081023 | 11 | 359 | 8.0 | 12.9 | 0.00 | 0.00 | 0.00 | 80 | 1012.6 |
| 20260506080821 | 11 | 351 | 8.0 | 16.1 | 0.00 | 0.00 | 0.00 | 80 | 1012.6 |
| 20260506080620 | 11 | 8 | 11.3 | 17.7 | 0.00 | 0.00 | 0.00 | 80 | 1012.5 |
| 20260506080439 | 11 | 11 | 9.7 | 17.7 | 0.00 | 0.00 | 0.00 | 80 | 1012.5 |
| 20260506080217 | 11 | 11 | 11.3 | 16.1 | 0.00 | 0.00 | 0.00 | 80 | 1012.7 |
| 20260506073416 | 11 | 3 | 11.3 | 17.7 | 0.00 | 0.00 | 0.00 | 80 | 1012.6 |
| 20260506073225 | 11 | 18 | 9.7 | 12.9 | 0.00 | 0.00 | 0.00 | 80 | 1012.3 |
| 20260506073024 | 11 | 356 | 8.0 | 12.9 | 0.00 | 0.00 | 0.00 | 80 | 1012.3 |
| 20260506072822 | 11 | 1 | 9.7 | 16.1 | 0.00 | 0.00 | 0.00 | 80 | 1012.2 |
| 20260506072621 | 11 | 9 | 16.1 | 22.5 | 0.00 | 0.00 | 0.00 | 80 | 1012.5 |
| 20260506072420 | 11 | 4 | 14.5 | 20.9 | 0.00 | 0.00 | 0.00 | 80 | 1012.3 |
| 20260506072218 | 11 | 7 | 12.9 | 20.9 | 0.00 | 0.00 | 0.00 | 80 | 1012.3 |
| 20260506072017 | 11 | 9 | 11.3 | 19.3 | 0.00 | 0.00 | 0.00 | 80 | 1012.5 |
| 20260506071846 | 12 | 9 | 14.5 | 19.3 | 0.00 | 0.00 | 0.00 | 80 | 1012.5 |
| 20260506071624 | 12 | 12 | 9.7 | 19.3 | 0.00 | 0.00 | 0.00 | 80 | 1012.3 |
| 20260506071422 | 12 | 11 | 14.5 | 19.3 | 0.00 | 0.00 | 0.00 | 80 | 1012.3 |
| 20260506071221 | 12 | 358 | 11.3 | 20.9 | 0.00 | 0.00 | 0.00 | 80 | 1012.3 |
| 20260506071019 | 12 | 357 | 14.5 | 24.1 | 0.00 | 0.00 | 0.00 | 80 | 1012.3 |
| 20260506070819 | 12 | 6 | 9.7 | 19.3 | 0.00 | 0.00 | 0.00 | 81 | 1012.2 |
| 20260506070616 | 12 | 2 | 12.9 | 22.5 | 0.00 | 0.00 | 0.00 | 81 | 1011.7 |
| 20260506070425 | 12 | 10 | 9.7 | 17.7 | 0.00 | 0.00 | 0.00 | 81 | 1011.6 |
| 20260506070227 | 12 | 28 | 12.9 | 20.9 | 0.00 | 0.00 | 0.00 | 81 | 1011.6 |
| 20260506062416 | 12 | 20 | 11.3 | 20.9 | 0.00 | 0.00 | 0.00 | 81 | 1012.0 |
| 20260506062227 | 12 | 29 | 14.5 | 19.3 | 0.00 | 0.00 | 0.00 | 82 | 1012.0 |
| 20260506062023 | 12 | 19 | 12.9 | 25.7 | 0.00 | 0.00 | 0.00 | 82 | 1012.3 |
| 20260506061843 | 12 | 3 | 9.7 | 16.1 | 0.00 | 0.00 | 0.00 | 82 | 1012.2 |
| 20260506061622 | 12 | 9 | 14.5 | 22.5 | 0.00 | 0.00 | 0.00 | 82 | 1012.2 |
| 20260506061419 | 12 | 11 | 11.3 | 14.5 | 0.00 | 0.00 | 0.00 | 82 | 1012.0 |
| 20260506061217 | 12 | 13 | 11.3 | 16.1 | 0.00 | 0.00 | 0.00 | 82 | 1012.1 |
| 20260506061036 | 12 | 13 | 14.5 | 22.5 | 0.00 | 0.00 | 0.00 | 82 | 1012.1 |
| 20260506060845 | 12 | 16 | 12.9 | 19.3 | 0.00 | 0.00 | 0.00 | 82 | 1012.3 |
| 20260506060623 | 12 | 11 | 11.3 | 17.7 | 0.00 | 0.00 | 0.00 | 82 | 1012.2 |
| 20260506060423 | 12 | 18 | 16.1 | 20.9 | 0.00 | 0.00 | 0.00 | 82 | 1011.9 |
| 20260506060300 | 12 | 16 | 16.1 | 20.9 | 0.00 | 0.00 | 0.00 | 82 | 1012.0 |
| 20260506051225 | 12 | 9 | 14.5 | 17.7 | 0.00 | 0.00 | 0.00 | 82 | 1012.3 |
| 20260506051025 | 12 | 12 | 14.5 | 24.1 | 0.00 | 0.00 | 0.00 | 82 | 1012.4 |
| 20260506050901 | 12 | 7 | 12.9 | 20.9 | 0.00 | 0.00 | 0.00 | 82 | 1012.2 |
| 20260506050639 | 12 | 15 | 8.0 | 9.7 | 0.00 | 0.00 | 0.00 | 82 | 1012.3 |
| 20260506050418 | 12 | 19 | 11.3 | 17.7 | 0.00 | 0.00 | 0.00 | 82 | 1012.4 |
| 20260506050216 | 12 | 16 | 14.5 | 20.9 | 0.00 | 0.00 | 0.00 | 82 | 1012.3 |
| 20260506045041 | 12 | 357 | 9.7 | 19.3 | 0.00 | 0.00 | 0.00 | 83 | 1012.4 |
| 20260506044816 | 12 | 8 | 11.3 | 16.1 | 0.00 | 0.00 | 0.00 | 83 | 1012.3 |
| 20260506044625 | 12 | 8 | 12.9 | 20.9 | 0.00 | 0.00 | 0.00 | 83 | 1012.1 |
| 20260506044444 | 12 | 11 | 17.7 | 22.5 | 0.00 | 0.00 | 0.00 | 83 | 1012.1 |
| 20260506044222 | 12 | 12 | 12.9 | 19.3 | 0.00 | 0.00 | 0.00 | 83 | 1012.3 |
| 20260506044021 | 12 | 10 | 14.5 | 19.3 | 0.00 | 0.00 | 0.00 | 83 | 1012.1 |
| 20260506043820 | 12 | 20 | 17.7 | 20.9 | 0.00 | 0.00 | 0.00 | 83 | 1012.1 |
| 20260506043617 | 12 | 15 | 14.5 | 24.1 | 0.00 | 0.00 | 0.00 | 82 | 1012.4 |
| 20260506043436 | 13 | 355 | 11.3 | 24.1 | 0.00 | 0.00 | 0.00 | 82 | 1012.3 |
| 20260506043247 | 13 | 1 | 11.3 | 16.1 | 0.00 | 0.00 | 0.00 | 83 | 1012.4 |
| 20260506043023 | 13 | 9 | 14.5 | 24.1 | 0.00 | 0.00 | 0.00 | 83 | 1012.3 |
| 20260506042823 | 13 | 358 | 12.9 | 19.3 | 0.00 | 0.00 | 0.00 | 83 | 1012.5 |
| 20260506042620 | 13 | 6 | 19.3 | 25.7 | 0.00 | 0.00 | 0.00 | 83 | 1012.5 |
| 20260506042420 | 13 | 10 | 17.7 | 24.1 | 0.00 | 0.00 | 0.00 | 83 | 1012.3 |
| 20260506042238 | 13 | 11 | 16.1 | 24.1 | 0.00 | 0.00 | 0.00 | 83 | 1012.3 |
| 20260506042016 | 13 | 7 | 12.9 | 24.1 | 0.00 | 0.00 | 0.00 | 83 | 1012.3 |
| 20260506041825 | 13 | 12 | 20.9 | 27.4 | 0.00 | 0.00 | 0.00 | 83 | 1012.3 |
| 20260506041623 | 13 | 10 | 14.5 | 22.5 | 0.00 | 0.00 | 0.00 | 84 | 1012.2 |
| 20260506041442 | 13 | 14 | 19.3 | 29.0 | 0.00 | 0.00 | 0.00 | 84 | 1012.1 |
| 20260506041220 | 13 | 12 | 17.7 | 22.5 | 0.00 | 0.00 | 0.00 | 84 | 1012.1 |
| 20260506041018 | 13 | 8 | 19.3 | 29.0 | 0.00 | 0.00 | 0.00 | 84 | 1012.1 |
| 20260506040817 | 13 | 6 | 11.3 | 16.1 | 0.00 | 0.00 | 0.00 | 84 | 1012.0 |
| 20260506040616 | 13 | 10 | 12.9 | 20.9 | 0.00 | 0.00 | 0.00 | 84 | 1012.0 |
| 20260506040424 | 13 | 11 | 14.5 | 24.1 | 0.00 | 0.00 | 0.00 | 84 | 1012.1 |
| 20260506040223 | 13 | 17 | 19.3 | 27.4 | 0.00 | 0.00 | 0.00 | 85 | 1012.3 |
| 20260506040021 | 13 | 14 | 19.3 | 30.6 | 0.00 | 0.00 | 0.00 | 85 | 1012.2 |
| 20260506035900 | 13 | 3 | 12.9 | 17.7 | 0.00 | 0.00 | 0.00 | 86 | 1012.2 |
| 20260506035618 | 13 | 18 | 12.9 | 20.9 | 0.00 | 0.00 | 0.00 | 86 | 1012.2 |
| 20260506035417 | 13 | 358 | 12.9 | 19.3 | 0.00 | 0.00 | 0.00 | 86 | 1011.9 |
| 20260506035216 | 13 | 8 | 9.7 | 16.1 | 0.00 | 0.00 | 0.00 | 86 | 1012.0 |
| 20260506035044 | 13 | 2 | 12.9 | 19.3 | 0.00 | 0.00 | 0.00 | 86 | 1012.0 |
| 20260506034903 | 13 | 356 | 9.7 | 16.1 | 0.00 | 0.00 | 0.00 | 86 | 1012.0 |
| 20260506034621 | 13 | 6 | 8.0 | 11.3 | 0.00 | 0.00 | 0.00 | 86 | 1012.1 |
| 20260506034420 | 13 | 358 | 11.3 | 17.7 | 0.00 | 0.00 | 0.00 | 86 | 1011.9 |
| 20260506034219 | 13 | 356 | 11.3 | 19.3 | 0.00 | 0.00 | 0.00 | 86 | 1011.9 |
| 20260506034018 | 13 | 341 | 11.3 | 20.9 | 0.00 | 0.00 | 0.00 | 86 | 1011.8 |
| 20260506033845 | 13 | 15 | 11.3 | 17.7 | 0.00 | 0.00 | 0.00 | 86 | 1011.9 |
| 20260506033624 | 13 | 2 | 8.0 | 12.9 | 0.00 | 0.00 | 0.00 | 86 | 1012.0 |
| 20260506033423 | 13 | 12 | 9.7 | 16.1 | 0.00 | 0.00 | 0.00 | 86 | 1012.1 |
| 20260506033241 | 13 | 12 | 12.9 | 17.7 | 0.00 | 0.00 | 0.00 | 86 | 1011.8 |
| 20260506033020 | 13 | 7 | 8.0 | 17.7 | 0.00 | 0.00 | 0.00 | 86 | 1011.9 |
| 20260506032838 | 13 | 4 | 11.3 | 16.1 | 0.00 | 0.00 | 0.00 | 86 | 1011.8 |
| 20260506032617 | 13 | 6 | 12.9 | 22.5 | 0.00 | 0.00 | 0.00 | 86 | 1011.8 |
| 20260506032425 | 13 | 15 | 12.9 | 25.7 | 0.00 | 0.00 | 0.00 | 86 | 1012.0 |
| 20260506032224 | 13 | 16 | 20.9 | 27.4 | 0.00 | 0.00 | 0.00 | 86 | 1011.8 |
| 20260506032022 | 13 | 15 | 19.3 | 30.6 | 0.00 | 0.00 | 0.00 | 86 | 1011.6 |
| 20260506031821 | 13 | 9 | 17.7 | 24.1 | 0.00 | 0.00 | 0.00 | 86 | 1011.7 |
| 20260506031619 | 13 | 16 | 14.5 | 17.7 | 0.00 | 0.00 | 0.00 | 86 | 1011.6 |
| 20260506031418 | 13 | 11 | 11.3 | 17.7 | 0.00 | 0.00 | 0.00 | 86 | 1011.5 |
| 20260506031217 | 13 | 353 | 12.9 | 19.3 | 0.00 | 0.00 | 0.00 | 86 | 1011.4 |
| 20260506031025 | 14 | 354 | 12.9 | 19.3 | 0.00 | 0.00 | 0.00 | 86 | 1011.5 |
| 20260506030824 | 14 | 16 | 9.7 | 17.7 | 0.00 | 0.00 | 0.00 | 86 | 1011.4 |
| 20260506030622 | 14 | 19 | 12.9 | 14.5 | 0.00 | 0.00 | 0.00 | 86 | 1011.3 |
| 20260506030421 | 14 | 12 | 9.7 | 17.7 | 0.00 | 0.00 | 0.00 | 86 | 1011.2 |
| 20260506030220 | 14 | 25 | 16.1 | 24.1 | 0.00 | 0.00 | 0.00 | 86 | 1011.3 |
| 20260506030018 | 14 | 12 | 11.3 | 19.3 | 0.00 | 0.00 | 0.00 | 86 | 1011.5 |
| 20260506025816 | 14 | 7 | 8.0 | 11.3 | 0.00 | 0.00 | 0.00 | 86 | 1011.6 |
| 20260506025645 | 14 | 12 | 9.7 | 12.9 | 0.00 | 0.00 | 0.00 | 86 | 1011.4 |
| 20260506025423 | 14 | 24 | 12.9 | 19.3 | 0.00 | 0.00 | 0.00 | 85 | 1011.3 |
| 20260506025222 | 14 | 16 | 12.9 | 14.5 | 0.00 | 0.00 | 0.00 | 85 | 1011.4 |
| 20260506025020 | 14 | 22 | 14.5 | 19.3 | 0.00 | 0.00 | 0.00 | 85 | 1011.3 |
| 20260506024819 | 14 | 29 | 11.3 | 19.3 | 0.00 | 0.00 | 0.00 | 85 | 1011.3 |
| 20260506024617 | 14 | 20 | 9.7 | 16.1 | 0.00 | 0.00 | 0.00 | 85 | 1011.3 |
| 20260506024416 | 14 | 13 | 9.7 | 16.1 | 0.00 | 0.00 | 0.00 | 85 | 1011.3 |
| 20260506024225 | 14 | 3 | 11.3 | 17.7 | 0.00 | 0.00 | 0.00 | 85 | 1011.3 |
| 20260506024023 | 14 | 15 | 14.5 | 17.7 | 0.00 | 0.00 | 0.00 | 85 | 1011.3 |
| 20260506023842 | 14 | 24 | 12.9 | 22.5 | 0.00 | 0.00 | 0.00 | 85 | 1011.2 |
| 20260506023620 | 14 | 18 | 12.9 | 17.7 | 0.00 | 0.00 | 0.00 | 85 | 1011.3 |
| 20260506023419 | 15 | 14 | 12.9 | 17.7 | 0.00 | 0.00 | 0.00 | 85 | 1011.2 |
| 20260506023217 | 15 | 7 | 9.7 | 17.7 | 0.00 | 0.00 | 0.00 | 85 | 1011.3 |
| 20260506023016 | 15 | 5 | 11.3 | 17.7 | 0.00 | 0.00 | 0.00 | 85 | 1011.3 |
| 20260506022825 | 15 | 358 | 6.4 | 11.3 | 0.00 | 0.00 | 0.00 | 85 | 1011.0 |
| 20260506022623 | 15 | 1 | 8.0 | 9.7 | 0.00 | 0.00 | 0.00 | 85 | 1010.9 |
| 20260506022421 | 15 | 14 | 8.0 | 14.5 | 0.00 | 0.00 | 0.00 | 85 | 1011.0 |
| 20260506022220 | 15 | 14 | 12.9 | 17.7 | 0.00 | 0.00 | 0.00 | 85 | 1010.7 |
| 20260506022019 | 15 | 2 | 11.3 | 19.3 | 0.00 | 0.00 | 0.00 | 85 | 1010.7 |
| 20260506021837 | 15 | 9 | 12.9 | 19.3 | 0.00 | 0.00 | 0.00 | 85 | 1010.6 |
| 20260506021615 | 15 | 8 | 12.9 | 16.1 | 0.00 | 0.00 | 0.00 | 85 | 1010.7 |
| 20260506021427 | 15 | 28 | 24.1 | 27.4 | 0.00 | 0.00 | 0.00 | 84 | 1010.6 |
| 20260506021223 | 15 | 12 | 9.7 | 12.9 | 0.00 | 0.00 | 0.00 | 85 | 1010.4 |
| 20260506021041 | 15 | 13 | 11.3 | 14.5 | 0.00 | 0.00 | 0.00 | 85 | 1010.3 |
| 20260506020820 | 15 | 15 | 14.5 | 20.9 | 0.00 | 0.00 | 0.00 | 84 | 1010.0 |
| 20260506020619 | 15 | 20 | 14.5 | 19.3 | 0.00 | 0.00 | 0.00 | 84 | 1010.1 |
| 20260506020439 | 15 | 33 | 12.9 | 20.9 | 0.00 | 0.00 | 0.00 | 84 | 1009.9 |
| 20260506020216 | 15 | 16 | 14.5 | 25.7 | 0.00 | 0.00 | 0.00 | 84 | 1009.9 |
| 20260506020024 | 15 | 19 | 17.7 | 25.7 | 0.00 | 0.00 | 0.00 | 84 | 1009.9 |
| 20260506015823 | 15 | 12 | 17.7 | 25.7 | 0.00 | 0.00 | 0.00 | 84 | 1009.6 |
| 20260506015621 | 15 | 17 | 17.7 | 27.4 | 0.00 | 0.00 | 0.00 | 84 | 1009.6 |
| 20260506015421 | 15 | 18 | 17.7 | 30.6 | 0.00 | 0.00 | 0.00 | 83 | 1009.6 |
| 20260506015218 | 15 | 23 | 24.1 | 30.6 | 0.00 | 0.00 | 0.00 | 83 | 1009.5 |
| 20260506015037 | 15 | 14 | 16.1 | 22.5 | 0.00 | 0.00 | 0.00 | 84 | 1009.3 |
| 20260506014825 | 15 | 19 | 19.3 | 29.0 | 0.00 | 0.00 | 0.00 | 84 | 1009.2 |
| 20260506014624 | 15 | 19 | 12.9 | 16.1 | 0.00 | 0.00 | 0.00 | 83 | 1009.0 |
| 20260506014422 | 16 | 18 | 16.1 | 17.7 | 0.00 | 0.00 | 0.00 | 83 | 1009.0 |
| 20260506014221 | 16 | 15 | 17.7 | 24.1 | 0.00 | 0.00 | 0.00 | 83 | 1008.8 |
| 20260506014020 | 16 | 9 | 14.5 | 24.1 | 0.00 | 0.00 | 0.00 | 83 | 1008.9 |
| 20260506013818 | 16 | 11 | 17.7 | 27.4 | 0.00 | 0.00 | 0.00 | 82 | 1009.0 |
| 20260506013616 | 16 | 11 | 19.3 | 30.6 | 0.00 | 0.00 | 0.00 | 82 | 1009.0 |
| 20260506013426 | 16 | 18 | 19.3 | 27.4 | 0.00 | 0.00 | 0.00 | 82 | 1008.9 |
| 20260506013224 | 16 | 17 | 17.7 | 29.0 | 0.00 | 0.00 | 0.00 | 82 | 1008.9 |
| 20260506013023 | 16 | 16 | 17.7 | 25.7 | 0.00 | 0.00 | 0.00 | 82 | 1008.5 |
| 20260506012821 | 16 | 10 | 14.5 | 19.3 | 0.00 | 0.00 | 0.00 | 82 | 1008.6 |
| 20260506012639 | 16 | 11 | 20.9 | 30.6 | 0.00 | 0.00 | 0.00 | 81 | 1008.5 |
| 20260506012418 | 16 | 20 | 19.3 | 27.4 | 0.00 | 0.00 | 0.00 | 82 | 1008.5 |
| 20260506012216 | 16 | 3 | 12.9 | 22.5 | 0.00 | 0.00 | 0.00 | 82 | 1008.6 |
| 20260506012025 | 16 | 346 | 9.7 | 16.1 | 0.00 | 0.00 | 0.00 | 81 | 1008.6 |
| 20260506011824 | 16 | 4 | 14.5 | 27.4 | 0.00 | 0.00 | 0.00 | 81 | 1008.8 |
| 20260506011703 | 17 | 352 | 9.7 | 24.1 | 0.00 | 0.00 | 0.00 | 81 | 1008.5 |
| 20260506011422 | 17 | 356 | 17.7 | 27.4 | 0.00 | 0.00 | 0.00 | 81 | 1008.5 |
| 20260506011219 | 17 | 356 | 11.3 | 20.9 | 0.00 | 0.00 | 0.00 | 81 | 1008.4 |
| 20260506011017 | 17 | 358 | 11.3 | 22.5 | 0.00 | 0.00 | 0.00 | 81 | 1008.3 |
| 20260506010836 | 17 | 360 | 12.9 | 19.3 | 0.00 | 0.00 | 0.00 | 80 | 1008.2 |
| 20260506010625 | 17 | 360 | 12.9 | 27.4 | 0.00 | 0.00 | 0.00 | 80 | 1008.3 |
| 20260506010423 | 17 | 359 | 14.5 | 22.5 | 0.00 | 0.00 | 0.00 | 80 | 1008.2 |
| 20260506010224 | 17 | 338 | 16.1 | 24.1 | 0.00 | 0.00 | 0.00 | 80 | 1008.2 |
| 20260506010020 | 17 | 353 | 9.7 | 20.9 | 0.00 | 0.00 | 0.00 | 80 | 1008.2 |
| 20260506005819 | 17 | 352 | 14.5 | 25.7 | 0.00 | 0.00 | 0.00 | 79 | 1008.3 |
| 20260506005638 | 17 | 343 | 11.3 | 20.9 | 0.00 | 0.00 | 0.00 | 79 | 1008.1 |
| 20260506005417 | 17 | 360 | 14.5 | 22.5 | 0.00 | 0.00 | 0.00 | 79 | 1008.2 |
| 20260506005225 | 17 | 342 | 9.7 | 22.5 | 0.00 | 0.00 | 0.00 | 79 | 1008.0 |
| 20260506005024 | 17 | 10 | 9.7 | 24.1 | 0.00 | 0.00 | 0.00 | 79 | 1008.2 |
| 20260506004822 | 17 | 339 | 12.9 | 22.5 | 0.00 | 0.00 | 0.00 | 79 | 1008.0 |
| 20260506004620 | 17 | 6 | 11.3 | 19.3 | 0.00 | 0.00 | 0.00 | 79 | 1008.0 |
| 20260506004419 | 17 | 9 | 12.9 | 20.9 | 0.00 | 0.00 | 0.00 | 79 | 1007.7 |
| 20260506004218 | 17 | 5 | 12.9 | 22.5 | 0.00 | 0.00 | 0.00 | 79 | 1007.8 |
| 20260506004016 | 17 | 344 | 11.3 | 20.9 | 0.00 | 0.00 | 0.00 | 79 | 1008.2 |
| 20260506003905 | 17 | 15 | 11.3 | 20.9 | 0.00 | 0.00 | 0.00 | 79 | 1008.5 |
| 20260506003623 | 17 | 336 | 14.5 | 22.5 | 0.00 | 0.00 | 0.00 | 78 | 1008.4 |
| 20260506003442 | 18 | 337 | 12.9 | 20.9 | 0.00 | 0.00 | 0.00 | 79 | 1008.4 |
| 20260506003220 | 18 | 336 | 11.3 | 19.3 | 0.00 | 0.00 | 0.00 | 79 | 1008.3 |
| 20260506003019 | 18 | 345 | 9.7 | 17.7 | 0.00 | 0.00 | 0.00 | 79 | 1008.2 |
| 20260506002817 | 18 | 330 | 14.5 | 24.1 | 0.00 | 0.00 | 0.00 | 79 | 1008.3 |
| 20260506002617 | 18 | 354 | 9.7 | 19.3 | 0.00 | 0.00 | 0.00 | 79 | 1008.3 |
| 20260506002424 | 18 | 339 | 9.7 | 16.1 | 0.00 | 0.00 | 0.00 | 78 | 1008.2 |
| 20260506002224 | 18 | 345 | 8.0 | 16.1 | 0.00 | 0.00 | 0.00 | 78 | 1008.0 |
| 20260506002022 | 18 | 349 | 11.3 | 24.1 | 0.00 | 0.00 | 0.00 | 78 | 1007.9 |
| 20260506001841 | 18 | 349 | 9.7 | 17.7 | 0.00 | 0.00 | 0.00 | 78 | 1008.0 |
| 20260506001619 | 18 | 341 | 16.1 | 25.7 | 0.00 | 0.00 | 0.00 | 78 | 1008.2 |
| 20260506001417 | 18 | 356 | 8.0 | 17.7 | 0.00 | 0.00 | 0.00 | 78 | 1008.0 |
| 20260506001215 | 18 | 7 | 14.5 | 24.1 | 0.00 | 0.00 | 0.00 | 77 | 1008.2 |
| 20260506001024 | 18 | 345 | 11.3 | 20.9 | 0.00 | 0.00 | 0.00 | 78 | 1008.2 |
| 20260506000823 | 18 | 330 | 6.4 | 12.9 | 0.00 | 0.00 | 0.00 | 78 | 1008.4 |
| 20260506000621 | 18 | 343 | 6.4 | 14.5 | 0.00 | 0.00 | 0.00 | 78 | 1008.3 |
| 20260506000420 | 18 | 317 | 12.9 | 22.5 | 0.00 | 0.00 | 0.00 | 77 | 1008.3 |
| 20260506000219 | 18 | 334 | 12.9 | 17.7 | 0.00 | 0.00 | 0.00 | 77 | 1008.1 |
| 20260506000017 | 18 | 339 | 9.7 | 19.3 | 0.00 | 0.00 | 0.00 | 76 | 1007.8 |
| 20260505235846 | 18 | 340 | 14.5 | 20.9 | 0.00 | 0.00 | 0.00 | 76 | 1007.8 |
| 20260505235624 | 18 | 329 | 8.0 | 14.5 | 0.00 | 0.00 | 0.00 | 76 | 1008.2 |
| 20260505235422 | 18 | 345 | 11.3 | 20.9 | 0.00 | 0.00 | 0.00 | 76 | 1008.2 |
| 20260505235241 | 18 | 341 | 12.9 | 22.5 | 0.00 | 0.00 | 0.00 | 76 | 1008.3 |
| 20260505235040 | 18 | 330 | 22.5 | 32.2 | 0.00 | 0.00 | 0.00 | 75 | 1008.2 |
| 20260505234819 | 18 | 350 | 11.3 | 19.3 | 0.00 | 0.00 | 0.00 | 75 | 1008.0 |
| 20260505234637 | 18 | 337 | 12.9 | 27.4 | 0.00 | 0.00 | 0.00 | 75 | 1008.0 |
| 20260505234425 | 18 | 351 | 16.1 | 20.9 | 0.00 | 0.00 | 0.00 | 75 | 1008.0 |
| 20260505234224 | 18 | 348 | 19.3 | 32.2 | 0.00 | 0.00 | 0.00 | 75 | 1008.0 |
| 20260505234022 | 19 | 353 | 8.0 | 17.7 | 0.00 | 0.00 | 0.00 | 76 | 1007.8 |
| 20260505233823 | 19 | 343 | 19.3 | 25.7 | 0.00 | 0.00 | 0.00 | 75 | 1007.9 |
| 20260505233700 | 19 | 336 | 19.3 | 33.8 | 0.00 | 0.00 | 0.00 | 75 | 1008.0 |
| 20260505233438 | 19 | 343 | 14.5 | 20.9 | 0.00 | 0.00 | 0.00 | 75 | 1008.2 |
| 20260505233216 | 19 | 348 | 17.7 | 29.0 | 0.00 | 0.00 | 0.00 | 75 | 1008.2 |
| 20260505233026 | 19 | 335 | 19.3 | 32.2 | 0.00 | 0.00 | 0.00 | 75 | 1008.3 |
| 20260505232823 | 19 | 316 | 17.7 | 24.1 | 0.00 | 0.00 | 0.00 | 75 | 1008.2 |
| 20260505232622 | 19 | 314 | 17.7 | 27.4 | 0.00 | 0.00 | 0.00 | 75 | 1008.3 |
| 20260505232421 | 20 | 321 | 24.1 | 40.2 | 0.00 | 0.00 | 0.00 | 74 | 1008.3 |
| 20260505232219 | 20 | 330 | 14.5 | 30.6 | 0.00 | 0.00 | 0.00 | 75 | 1008.2 |
| 20260505232018 | 20 | 319 | 14.5 | 20.9 | 0.00 | 0.00 | 0.00 | 75 | 1007.9 |
| 20260505231816 | 20 | 337 | 11.3 | 20.9 | 0.00 | 0.00 | 0.00 | 75 | 1007.6 |
| 20260505231625 | 20 | 340 | 17.7 | 27.4 | 0.00 | 0.00 | 0.00 | 75 | 1007.5 |
| 20260505231423 | 20 | 348 | 17.7 | 27.4 | 0.00 | 0.00 | 0.00 | 74 | 1007.6 |
| 20260505231222 | 20 | 336 | 16.1 | 30.6 | 0.00 | 0.00 | 0.00 | 74 | 1007.6 |
| 20260505231020 | 20 | 338 | 20.9 | 37.0 | 0.00 | 0.00 | 0.00 | 74 | 1007.6 |
| 20260505230839 | 20 | 334 | 19.3 | 27.4 | 0.00 | 0.00 | 0.00 | 73 | 1007.5 |
| 20260505230416 | 20 | 345 | 11.3 | 27.4 | 0.00 | 0.00 | 0.00 | 73 | 1007.8 |
| 20260505230225 | 20 | 323 | 19.3 | 25.7 | 0.00 | 0.00 | 0.00 | 72 | 1007.8 |
| 20260505230023 | 21 | 317 | 25.7 | 35.4 | 0.00 | 0.00 | 0.00 | 72 | 1007.6 |
| 20260505225902 | 21 | 316 | 29.0 | 43.5 | 0.00 | 0.00 | 0.00 | 72 | 1007.8 |
| 20260505225620 | 21 | 321 | 24.1 | 30.6 | 0.00 | 0.00 | 0.00 | 72 | 1007.5 |
| 20260505225420 | 21 | 318 | 22.5 | 32.2 | 0.00 | 0.00 | 0.00 | 72 | 1007.6 |
| 20260505225217 | 21 | 323 | 25.7 | 33.8 | 0.00 | 0.00 | 0.00 | 72 | 1007.6 |
| 20260505225016 | 21 | 323 | 17.7 | 24.1 | 0.00 | 0.00 | 0.00 | 73 | 1007.7 |
| 20260505224924 | 21 | 320 | 17.7 | 24.1 | 0.00 | 0.00 | 0.00 | 73 | 1007.6 |
| 20260505224624 | 21 | 327 | 24.1 | 38.6 | 0.00 | 0.00 | 0.00 | 72 | 1007.5 |
| 20260505224422 | 21 | 323 | 20.9 | 29.0 | 0.00 | 0.00 | 0.00 | 72 | 1007.7 |
| 20260505224220 | 21 | 343 | 17.7 | 35.4 | 0.00 | 0.00 | 0.00 | 72 | 1007.7 |
| 20260505224019 | 21 | 346 | 19.3 | 27.4 | 0.00 | 0.00 | 0.00 | 72 | 1007.8 |
| 20260505223817 | 21 | 327 | 14.5 | 27.4 | 0.00 | 0.00 | 0.00 | 73 | 1007.9 |
| 20260505223615 | 21 | 322 | 14.5 | 20.9 | 0.00 | 0.00 | 0.00 | 73 | 1007.8 |
| 20260505223424 | 21 | 308 | 20.9 | 29.0 | 0.00 | 0.00 | 0.00 | 72 | 1007.7 |
| 20260505223223 | 21 | 312 | 27.4 | 40.2 | 0.00 | 0.00 | 0.00 | 72 | 1007.7 |
| 20260505223041 | 21 | 312 | 30.6 | 37.0 | 0.00 | 0.00 | 0.00 | 72 | 1007.8 |
| 20260505222821 | 21 | 322 | 20.9 | 29.0 | 0.00 | 0.00 | 0.00 | 72 | 1007.7 |
| 20260505222618 | 21 | 317 | 29.0 | 33.8 | 0.00 | 0.00 | 0.00 | 72 | 1007.6 |
| 20260505222417 | 21 | 304 | 22.5 | 27.4 | 0.00 | 0.00 | 0.00 | 72 | 1007.5 |
| 20260505222225 | 22 | 316 | 25.7 | 32.2 | 0.00 | 0.00 | 0.00 | 71 | 1007.4 |
| 20260505222024 | 22 | 316 | 24.1 | 29.0 | 0.00 | 0.00 | 0.00 | 72 | 1007.5 |
| 20260505221824 | 22 | 317 | 20.9 | 32.2 | 0.00 | 0.00 | 0.00 | 71 | 1007.6 |
| 20260505221621 | 22 | 319 | 19.3 | 27.4 | 0.00 | 0.00 | 0.00 | 71 | 1007.6 |
| 20260505221420 | 22 | 318 | 27.4 | 35.4 | 0.00 | 0.00 | 0.00 | 71 | 1007.6 |
| 20260505221218 | 22 | 312 | 17.7 | 25.7 | 0.00 | 0.00 | 0.00 | 72 | 1007.3 |
| 20260505221016 | 22 | 333 | 14.5 | 22.5 | 0.00 | 0.00 | 0.00 | 71 | 1007.3 |
| 20260505220825 | 22 | 319 | 20.9 | 32.2 | 0.00 | 0.00 | 0.00 | 71 | 1007.1 |
| 20260505220645 | 23 | 346 | 12.9 | 22.5 | 0.00 | 0.00 | 0.00 | 71 | 1007.3 |
| 20260505220423 | 23 | 335 | 9.7 | 20.9 | 0.00 | 0.00 | 0.00 | 71 | 1007.2 |
| 20260505220221 | 23 | 322 | 14.5 | 20.9 | 0.00 | 0.00 | 0.00 | 71 | 1007.1 |
| 20260505220019 | 23 | 323 | 19.3 | 27.4 | 0.00 | 0.00 | 0.00 | 70 | 1007.1 |
| 20260505215820 | 23 | 345 | 9.7 | 17.7 | 0.00 | 0.00 | 0.00 | 70 | 1007.0 |
| 20260505215616 | 23 | 358 | 14.5 | 25.7 | 0.00 | 0.00 | 0.00 | 68 | 1006.9 |
| 20260505215425 | 23 | 342 | 16.1 | 27.4 | 0.00 | 0.00 | 0.00 | 68 | 1006.9 |
| 20260505215244 | 24 | 336 | 12.9 | 25.7 | 0.00 | 0.00 | 0.00 | 67 | 1006.9 |
| 20260505215022 | 24 | 317 | 14.5 | 19.3 | 0.00 | 0.00 | 0.00 | 64 | 1006.8 |
| 20260505214820 | 25 | 356 | 12.9 | 20.9 | 0.00 | 0.00 | 0.00 | 64 | 1006.9 |
| 20260505214619 | 25 | 336 | 14.5 | 24.1 | 0.00 | 0.00 | 0.00 | 64 | 1006.8 |
| 20260505214418 | 25 | 337 | 17.7 | 27.4 | 0.00 | 0.00 | 0.00 | 63 | 1006.8 |
| 20260505214216 | 25 | 320 | 19.3 | 27.4 | 0.00 | 0.00 | 0.00 | 64 | 1006.7 |
| 20260505214025 | 26 | 314 | 19.3 | 25.7 | 0.00 | 0.00 | 0.00 | 64 | 1006.8 |
| 20260505213823 | 25 | 320 | 12.9 | 22.5 | 0.00 | 0.00 | 0.00 | 64 | 1006.7 |
| 20260505213622 | 25 | 320 | 16.1 | 20.9 | 0.00 | 0.00 | 0.00 | 64 | 1006.7 |
| 20260505213440 | 25 | 296 | 19.3 | 27.4 | 0.00 | 0.00 | 0.00 | 65 | 1006.7 |
| 20260505213219 | 25 | 303 | 20.9 | 30.6 | 0.00 | 0.00 | 0.00 | 65 | 1006.8 |
| 20260505213018 | 25 | 304 | 27.4 | 33.8 | 0.00 | 0.00 | 0.00 | 64 | 1006.8 |
| 20260505212816 | 25 | 301 | 19.3 | 24.1 | 0.00 | 0.00 | 0.00 | 66 | 1006.8 |
| 20260505212625 | 25 | 293 | 24.1 | 29.0 | 0.00 | 0.00 | 0.00 | 65 | 1007.1 |
| 20260505212423 | 25 | 295 | 20.9 | 27.4 | 0.00 | 0.00 | 0.00 | 65 | 1006.9 |
| 20260505212223 | 26 | 300 | 19.3 | 25.7 | 0.00 | 0.00 | 0.00 | 65 | 1006.7 |
| 20260505212020 | 26 | 333 | 14.5 | 24.1 | 0.00 | 0.00 | 0.00 | 64 | 1006.4 |
| 20260505211818 | 26 | 314 | 12.9 | 20.9 | 0.00 | 0.00 | 0.00 | 65 | 1006.8 |
| 20260505211617 | 25 | 323 | 16.1 | 29.0 | 0.00 | 0.00 | 0.00 | 66 | 1006.6 |
| 20260505211436 | 25 | 308 | 14.5 | 19.3 | 0.00 | 0.00 | 0.00 | 66 | 1006.6 |
| 20260505211224 | 25 | 311 | 16.1 | 24.1 | 0.00 | 0.00 | 0.00 | 66 | 1006.9 |
| 20260505211024 | 25 | 318 | 19.3 | 27.4 | 0.00 | 0.00 | 0.00 | 65 | 1006.8 |
| 20260505210843 | 26 | 321 | 20.9 | 27.4 | 0.00 | 0.00 | 0.00 | 64 | 1007.0 |
| 20260505210620 | 26 | 335 | 14.5 | 25.7 | 0.00 | 0.00 | 0.00 | 63 | 1007.0 |
| 20260505210419 | 26 | 345 | 11.3 | 17.7 | 0.00 | 0.00 | 0.00 | 64 | 1007.0 |
| 20260505210217 | 26 | 311 | 16.1 | 29.0 | 0.00 | 0.00 | 0.00 | 64 | 1007.0 |
| 20260505210015 | 26 | 331 | 16.1 | 24.1 | 0.00 | 0.00 | 0.00 | 63 | 1007.2 |
| 20260505205824 | 26 | 314 | 22.5 | 33.8 | 0.00 | 0.00 | 0.00 | 63 | 1007.1 |
| 20260505205623 | 26 | 312 | 16.1 | 22.5 | 0.00 | 0.00 | 0.00 | 64 | 1007.1 |
| 20260505205423 | 26 | 293 | 24.1 | 33.8 | 0.00 | 0.00 | 0.00 | 64 | 1007.1 |
| 20260505205220 | 26 | 306 | 19.3 | 27.4 | 0.00 | 0.00 | 0.00 | 63 | 1007.0 |
| 20260505205018 | 26 | 327 | 17.7 | 25.7 | 0.00 | 0.00 | 0.00 | 62 | 1006.8 |
| 20260505204818 | 27 | 293 | 22.5 | 30.6 | 0.00 | 0.00 | 0.00 | 62 | 1006.9 |
| 20260505204628 | 27 | 278 | 22.5 | 29.0 | 0.00 | 0.00 | 0.00 | 61 | 1007.0 |
| 20260505204424 | 26 | 308 | 16.1 | 25.7 | 0.00 | 0.00 | 0.00 | 63 | 1007.1 |
| 20260505204223 | 26 | 293 | 20.9 | 25.7 | 0.00 | 0.00 | 0.00 | 62 | 1007.0 |
| 20260505204021 | 27 | 289 | 29.0 | 37.0 | 0.00 | 0.00 | 0.00 | 61 | 1007.1 |
| 20260505203819 | 27 | 306 | 16.1 | 22.5 | 0.00 | 0.00 | 0.00 | 62 | 1007.0 |
| 20260505203638 | 27 | 327 | 12.9 | 17.7 | 0.00 | 0.00 | 0.00 | 62 | 1007.1 |
| 20260505203416 | 27 | 304 | 20.9 | 30.6 | 0.00 | 0.00 | 0.00 | 62 | 1007.1 |
| 20260505203225 | 27 | 290 | 19.3 | 24.1 | 0.00 | 0.00 | 0.00 | 61 | 1007.0 |
| 20260505203027 | 27 | 286 | 22.5 | 29.0 | 0.00 | 0.00 | 0.00 | 61 | 1006.9 |
| 20260505202822 | 27 | 281 | 19.3 | 22.5 | 0.00 | 0.00 | 0.00 | 61 | 1006.8 |
| 20260505202621 | 27 | 278 | 20.9 | 27.4 | 0.00 | 0.00 | 0.00 | 61 | 1006.8 |
| 20260505202419 | 26 | 308 | 16.1 | 20.9 | 0.00 | 0.00 | 0.00 | 62 | 1006.9 |
| 20260505202218 | 26 | 298 | 22.5 | 33.8 | 0.00 | 0.00 | 0.00 | 61 | 1007.1 |
| 20260505202016 | 26 | 293 | 20.9 | 32.2 | 0.00 | 0.00 | 0.00 | 62 | 1007.3 |
| 20260505201825 | 26 | 307 | 24.1 | 27.4 | 0.00 | 0.00 | 0.00 | 61 | 1007.0 |
| 20260505201644 | 26 | 279 | 17.7 | 25.7 | 0.00 | 0.00 | 0.00 | 61 | 1007.0 |
| 20260505201442 | 26 | 297 | 20.9 | 29.0 | 0.00 | 0.00 | 0.00 | 60 | 1007.0 |
| 20260505201220 | 27 | 293 | 22.5 | 27.4 | 0.00 | 0.00 | 0.00 | 59 | 1007.0 |
| 20260505201019 | 27 | 281 | 16.1 | 22.5 | 0.00 | 0.00 | 0.00 | 58 | 1007.0 |
| 20260505200818 | 27 | 305 | 20.9 | 25.7 | 0.00 | 0.00 | 0.00 | 55 | 1006.9 |
| 20260505200616 | 27 | 293 | 14.5 | 24.1 | 0.00 | 0.00 | 0.00 | 56 | 1007.0 |
| 20260505200425 | 26 | 293 | 20.9 | 29.0 | 0.00 | 0.00 | 0.00 | 55 | 1007.0 |
| 20260505200243 | 26 | 282 | 20.9 | 25.7 | 0.00 | 0.00 | 0.00 | 57 | 1007.0 |
| 20260505200022 | 26 | 291 | 25.7 | 30.6 | 0.00 | 0.00 | 0.00 | 55 | 1007.2 |
| 20260505195820 | 26 | 290 | 27.4 | 33.8 | 0.00 | 0.00 | 0.00 | 54 | 1007.2 |
| 20260505195619 | 26 | 297 | 22.5 | 29.0 | 0.00 | 0.00 | 0.00 | 54 | 1007.1 |
| 20260505195418 | 26 | 288 | 22.5 | 32.2 | 0.00 | 0.00 | 0.00 | 53 | 1007.2 |
| 20260505195216 | 27 | 291 | 25.7 | 33.8 | 0.00 | 0.00 | 0.00 | 51 | 1007.1 |
| 20260505195025 | 27 | 277 | 24.1 | 30.6 | 0.00 | 0.00 | 0.00 | 50 | 1006.9 |
| 20260505194823 | 27 | 283 | 25.7 | 38.6 | 0.00 | 0.00 | 0.00 | 49 | 1007.0 |
| 20260505194622 | 27 | 285 | 30.6 | 37.0 | 0.00 | 0.00 | 0.00 | 47 | 1006.8 |
| 20260505194420 | 27 | 290 | 30.6 | 35.4 | 0.00 | 0.00 | 0.00 | 47 | 1007.0 |
| 20260505194239 | 27 | 289 | 20.9 | 32.2 | 0.00 | 0.00 | 0.00 | 48 | 1006.9 |
| 20260505194037 | 27 | 292 | 27.4 | 38.6 | 0.00 | 0.00 | 0.00 | 46 | 1006.7 |
| 20260505193816 | 27 | 277 | 22.5 | 32.2 | 0.00 | 0.00 | 0.00 | 45 | 1006.7 |
| 20260505193624 | 27 | 276 | 20.9 | 29.0 | 0.00 | 0.00 | 0.00 | 47 | 1006.9 |
| 20260505193423 | 27 | 289 | 22.5 | 29.0 | 0.00 | 0.00 | 0.00 | 48 | 1006.8 |
| 20260505193241 | 27 | 276 | 32.2 | 40.2 | 0.00 | 0.00 | 0.00 | 46 | 1006.9 |
| 20260505193020 | 26 | 302 | 24.1 | 33.8 | 0.00 | 0.00 | 0.00 | 47 | 1006.7 |
| 20260505192858 | 26 | 283 | 29.0 | 37.0 | 0.00 | 0.00 | 0.00 | 47 | 1007.0 |
| 20260505192617 | 26 | 288 | 27.4 | 37.0 | 0.00 | 0.00 | 0.00 | 48 | 1007.1 |
| 20260505192415 | 27 | 300 | 27.4 | 33.8 | 0.00 | 0.00 | 0.00 | 48 | 1007.0 |
| 20260505192224 | 26 | 301 | 24.1 | 35.4 | 0.00 | 0.00 | 0.00 | 50 | 1007.0 |
| 20260505192043 | 26 | 303 | 30.6 | 40.2 | 0.00 | 0.00 | 0.00 | 49 | 1006.9 |
| 20260505191821 | 27 | 281 | 29.0 | 37.0 | 0.00 | 0.00 | 0.00 | 50 | 1006.8 |
| 20260505191620 | 28 | 262 | 19.3 | 24.1 | 0.00 | 0.00 | 0.00 | 59 | 1006.8 |
| 20260505191418 | 28 | 249 | 20.9 | 33.8 | 0.00 | 0.00 | 0.00 | 60 | 1006.6 |
| 20260505191217 | 28 | 264 | 17.7 | 25.7 | 0.00 | 0.00 | 0.00 | 58 | 1006.5 |
| 20260505191045 | 28 | 258 | 22.5 | 33.8 | 0.00 | 0.00 | 0.00 | 59 | 1006.5 |
| 20260505190824 | 28 | 238 | 19.3 | 27.4 | 0.00 | 0.00 | 0.00 | 61 | 1006.5 |
| 20260505190622 | 28 | 264 | 20.9 | 29.0 | 0.00 | 0.00 | 0.00 | 60 | 1006.5 |
| 20260505190441 | 28 | 244 | 25.7 | 29.0 | 0.00 | 0.00 | 0.00 | 60 | 1006.3 |
| 20260505190220 | 29 | 238 | 19.3 | 24.1 | 0.00 | 0.00 | 0.00 | 62 | 1006.6 |
| 20260505190018 | 28 | 250 | 20.9 | 25.7 | 0.00 | 0.00 | 0.00 | 63 | 1006.4 |
| 20260505185816 | 28 | 256 | 24.1 | 27.4 | 0.00 | 0.00 | 0.00 | 63 | 1006.4 |
| 20260505185645 | 28 | 199 | 17.7 | 22.5 | 0.00 | 0.00 | 0.00 | 65 | 1006.4 |
| 20260505185444 | 28 | 224 | 12.9 | 19.3 | 0.00 | 0.00 | 0.00 | 65 | 1006.3 |
| 20260505185222 | 28 | 225 | 12.9 | 19.3 | 0.00 | 0.00 | 0.00 | 65 | 1006.4 |
| 20260505185041 | 28 | 250 | 14.5 | 24.1 | 0.00 | 0.00 | 0.00 | 64 | 1006.4 |
| 20260505184821 | 28 | 214 | 16.1 | 19.3 | 0.00 | 0.00 | 0.00 | 65 | 1006.5 |
| 20260505184618 | 28 | 243 | 16.1 | 22.5 | 0.00 | 0.00 | 0.00 | 67 | 1006.4 |
| 20260505184416 | 27 | 224 | 16.1 | 25.7 | 0.00 | 0.00 | 0.00 | 68 | 1006.5 |
| 20260505184225 | 28 | 229 | 19.3 | 27.4 | 0.00 | 0.00 | 0.00 | 67 | 1006.4 |
| 20260505184024 | 28 | 234 | 16.1 | 22.5 | 0.00 | 0.00 | 0.00 | 67 | 1006.5 |
| 20260505183822 | 27 | 234 | 12.9 | 16.1 | 0.00 | 0.00 | 0.00 | 68 | 1006.4 |
| 20260505183621 | 27 | 213 | 16.1 | 24.1 | 0.00 | 0.00 | 0.00 | 68 | 1006.4 |
| 20260505183419 | 27 | 229 | 17.7 | 27.4 | 0.00 | 0.00 | 0.00 | 68 | 1006.4 |
| 20260505183218 | 27 | 223 | 16.1 | 22.5 | 0.00 | 0.00 | 0.00 | 68 | 1006.3 |
| 20260505183016 | 27 | 226 | 19.3 | 25.7 | 0.00 | 0.00 | 0.00 | 68 | 1006.3 |
| 20260505182825 | 27 | 231 | 17.7 | 24.1 | 0.00 | 0.00 | 0.00 | 68 | 1006.7 |
| 20260505182643 | 27 | 213 | 17.7 | 24.1 | 0.00 | 0.00 | 0.00 | 68 | 1006.4 |
| 20260505182422 | 27 | 219 | 11.3 | 14.5 | 0.00 | 0.00 | 0.00 | 69 | 1006.5 |
| 20260505182220 | 27 | 209 | 19.3 | 27.4 | 0.00 | 0.00 | 0.00 | 68 | 1006.6 |
| 20260505182019 | 27 | 205 | 12.9 | 17.7 | 0.00 | 0.00 | 0.00 | 69 | 1006.6 |
| 20260505181817 | 27 | 235 | 19.3 | 27.4 | 0.00 | 0.00 | 0.00 | 69 | 1006.8 |
| 20260505181616 | 27 | 209 | 16.1 | 20.9 | 0.00 | 0.00 | 0.00 | 68 | 1006.7 |
| 20260505181425 | 27 | 226 | 19.3 | 22.5 | 0.00 | 0.00 | 0.00 | 68 | 1006.6 |
| 20260505181223 | 27 | 223 | 17.7 | 22.5 | 0.00 | 0.00 | 0.00 | 68 | 1006.6 |
| 20260505181022 | 27 | 216 | 16.1 | 24.1 | 0.00 | 0.00 | 0.00 | 68 | 1006.6 |
| 20260505180841 | 27 | 216 | 19.3 | 27.4 | 0.00 | 0.00 | 0.00 | 67 | 1006.4 |
| 20260505180619 | 27 | 228 | 14.5 | 20.9 | 0.00 | 0.00 | 0.00 | 68 | 1006.4 |
| 20260505180417 | 27 | 245 | 16.1 | 19.3 | 0.00 | 0.00 | 0.00 | 68 | 1006.5 |
| 20260505180216 | 27 | 244 | 17.7 | 24.1 | 0.00 | 0.00 | 0.00 | 67 | 1006.6 |
| 20260505180046 | 27 | 227 | 22.5 | 29.0 | 0.00 | 0.00 | 0.00 | 67 | 1006.6 |
| 20260505175823 | 27 | 223 | 17.7 | 30.6 | 0.00 | 0.00 | 0.00 | 67 | 1006.6 |
| 20260505175622 | 27 | 232 | 24.1 | 29.0 | 0.00 | 0.00 | 0.00 | 66 | 1006.5 |
| 20260505175420 | 27 | 207 | 16.1 | 22.5 | 0.00 | 0.00 | 0.00 | 66 | 1006.7 |
| 20260505175221 | 27 | 244 | 19.3 | 25.7 | 0.00 | 0.00 | 0.00 | 67 | 1006.4 |
| 20260505175018 | 27 | 229 | 20.9 | 29.0 | 0.00 | 0.00 | 0.00 | 67 | 1006.2 |
| 20260505174816 | 27 | 221 | 20.9 | 30.6 | 0.00 | 0.00 | 0.00 | 66 | 1006.3 |
| 20260505174624 | 27 | 209 | 22.5 | 30.6 | 0.00 | 0.00 | 0.00 | 66 | 1006.5 |
| 20260505174423 | 27 | 235 | 19.3 | 25.7 | 0.00 | 0.00 | 0.00 | 66 | 1006.4 |
| 20260505174222 | 27 | 225 | 20.9 | 30.6 | 0.00 | 0.00 | 0.00 | 65 | 1006.4 |
| 20260505174020 | 27 | 238 | 20.9 | 29.0 | 0.00 | 0.00 | 0.00 | 66 | 1006.3 |
| 20260505173819 | 27 | 226 | 19.3 | 32.2 | 0.00 | 0.00 | 0.00 | 66 | 1006.3 |
| 20260505173617 | 27 | 228 | 25.7 | 33.8 | 0.00 | 0.00 | 0.00 | 67 | 1006.3 |
| 20260505173416 | 27 | 227 | 17.7 | 24.1 | 0.00 | 0.00 | 0.00 | 69 | 1006.3 |
| 20260505173245 | 27 | 230 | 22.5 | 32.2 | 0.00 | 0.00 | 0.00 | 68 | 1006.5 |
| 20260505173023 | 27 | 220 | 19.3 | 27.4 | 0.00 | 0.00 | 0.00 | 69 | 1006.4 |
| 20260505172841 | 26 | 205 | 20.9 | 29.0 | 0.00 | 0.00 | 0.00 | 68 | 1006.2 |
| 20260505172620 | 26 | 234 | 27.4 | 30.6 | 0.00 | 0.00 | 0.00 | 68 | 1006.3 |
| 20260505172418 | 26 | 230 | 29.0 | 38.6 | 0.00 | 0.00 | 0.00 | 67 | 1006.2 |
| 20260505172239 | 26 | 219 | 25.7 | 37.0 | 0.00 | 0.00 | 0.00 | 68 | 1006.3 |
| 20260505172025 | 27 | 228 | 22.5 | 30.6 | 0.00 | 0.00 | 0.00 | 69 | 1006.2 |
| 20260505171824 | 26 | 238 | 25.7 | 37.0 | 0.00 | 0.00 | 0.00 | 69 | 1006.1 |
| 20260505171642 | 27 | 210 | 24.1 | 30.6 | 0.00 | 0.00 | 0.00 | 68 | 1006.0 |
| 20260505171421 | 26 | 223 | 25.7 | 37.0 | 0.00 | 0.00 | 0.00 | 68 | 1006.0 |
| 20260505171220 | 27 | 212 | 29.0 | 40.2 | 0.00 | 0.00 | 0.00 | 68 | 1005.9 |
| 20260505171018 | 26 | 215 | 20.9 | 29.0 | 0.00 | 0.00 | 0.00 | 70 | 1006.0 |
| 20260505170817 | 26 | 219 | 24.1 | 33.8 | 0.00 | 0.00 | 0.00 | 70 | 1006.0 |
| 20260505170625 | 26 | 206 | 24.1 | 35.4 | 0.00 | 0.00 | 0.00 | 72 | 1006.0 |
| 20260505170424 | 26 | 212 | 32.2 | 40.2 | 0.00 | 0.00 | 0.00 | 72 | 1006.0 |
| 20260505170225 | 26 | 211 | 19.3 | 29.0 | 0.00 | 0.00 | 0.00 | 73 | 1005.9 |
| 20260505170021 | 26 | 224 | 25.7 | 33.8 | 0.00 | 0.00 | 0.00 | 73 | 1006.0 |
| 20260505165819 | 26 | 223 | 24.1 | 33.8 | 0.00 | 0.00 | 0.00 | 72 | 1006.0 |
| 20260505165638 | 26 | 207 | 20.9 | 29.0 | 0.00 | 0.00 | 0.00 | 74 | 1006.0 |
| 20260505165417 | 25 | 216 | 25.7 | 35.4 | 0.00 | 0.00 | 0.00 | 74 | 1006.0 |
| 20260505165245 | 25 | 208 | 25.7 | 32.2 | 0.00 | 0.00 | 0.00 | 74 | 1005.9 |
| 20260505165024 | 25 | 199 | 19.3 | 25.7 | 0.00 | 0.00 | 0.00 | 75 | 1006.0 |
| 20260505164822 | 25 | 214 | 20.9 | 27.4 | 0.00 | 0.00 | 0.00 | 76 | 1006.1 |
| 20260505164701 | 25 | 223 | 20.9 | 27.4 | 0.00 | 0.00 | 0.00 | 76 | 1006.2 |
| 20260505164420 | 25 | 201 | 16.1 | 17.7 | 0.00 | 0.00 | 0.00 | 76 | 1006.1 |
| 20260505164218 | 25 | 202 | 17.7 | 25.7 | 0.00 | 0.00 | 0.00 | 77 | 1006.2 |
| 20260505164037 | 25 | 205 | 22.5 | 27.4 | 0.00 | 0.00 | 0.00 | 77 | 1006.3 |
| 20260505163905 | 24 | 203 | 24.1 | 32.2 | 0.00 | 0.00 | 0.00 | 77 | 1006.2 |
| 20260505163624 | 24 | 218 | 20.9 | 27.4 | 0.00 | 0.00 | 0.00 | 78 | 1006.2 |
| 20260505163422 | 24 | 204 | 20.9 | 25.7 | 0.00 | 0.00 | 0.00 | 77 | 1005.7 |
| 20260505163221 | 24 | 203 | 19.3 | 24.1 | 0.00 | 0.00 | 0.00 | 77 | 1005.9 |
| 20260505163039 | 24 | 204 | 16.1 | 20.9 | 0.00 | 0.00 | 0.00 | 78 | 1005.7 |
| 20260505162818 | 24 | 204 | 16.1 | 22.5 | 0.00 | 0.00 | 0.00 | 77 | 1006.0 |
| 20260505162616 | 24 | 202 | 24.1 | 32.2 | 0.00 | 0.00 | 0.00 | 77 | 1005.8 |
| 20260505162425 | 24 | 223 | 16.1 | 20.9 | 0.00 | 0.00 | 0.00 | 78 | 1005.7 |
| 20260505162224 | 24 | 204 | 19.3 | 24.1 | 0.00 | 0.00 | 0.00 | 77 | 1006.0 |
| 20260505162042 | 24 | 205 | 19.3 | 27.4 | 0.00 | 0.00 | 0.00 | 78 | 1005.8 |
| 20260505161842 | 23 | 201 | 16.1 | 27.4 | 0.00 | 0.00 | 0.00 | 78 | 1005.7 |
| 20260505161619 | 23 | 201 | 17.7 | 22.5 | 0.00 | 0.00 | 0.00 | 78 | 1005.9 |
| 20260505161418 | 23 | 210 | 14.5 | 17.7 | 0.00 | 0.00 | 0.00 | 79 | 1006.0 |
| 20260505161216 | 23 | 206 | 14.5 | 20.9 | 0.00 | 0.00 | 0.00 | 78 | 1006.0 |
| 20260505161025 | 23 | 226 | 19.3 | 29.0 | 0.00 | 0.00 | 0.00 | 78 | 1006.0 |
| 20260505160823 | 23 | 207 | 16.1 | 24.1 | 0.00 | 0.00 | 0.00 | 78 | 1005.6 |
| 20260505160622 | 23 | 204 | 19.3 | 29.0 | 0.00 | 0.00 | 0.00 | 78 | 1005.9 |
| 20260505160423 | 23 | 203 | 14.5 | 20.9 | 0.00 | 0.00 | 0.00 | 79 | 1006.0 |
| 20260505160219 | 23 | 196 | 17.7 | 20.9 | 0.00 | 0.00 | 0.00 | 79 | 1006.0 |
| 20260505153217 | 23 | 216 | 16.1 | 20.9 | 0.00 | 0.00 | 0.00 | 80 | 1005.9 |
| 20260505153016 | 23 | 204 | 16.1 | 19.3 | 0.00 | 0.00 | 0.00 | 80 | 1005.9 |
| 20260505152844 | 23 | 200 | 16.1 | 20.9 | 0.00 | 0.00 | 0.00 | 80 | 1005.9 |
| 20260505152643 | 23 | 208 | 14.5 | 19.3 | 0.00 | 0.00 | 0.00 | 80 | 1005.8 |
| 20260505152421 | 23 | 202 | 14.5 | 17.7 | 0.00 | 0.00 | 0.00 | 80 | 1005.9 |
| 20260505152220 | 23 | 204 | 14.5 | 20.9 | 0.00 | 0.00 | 0.00 | 79 | 1005.7 |
| 20260505152019 | 23 | 220 | 20.9 | 30.6 | 0.00 | 0.00 | 0.00 | 79 | 1005.5 |
| 20260505151818 | 23 | 200 | 17.7 | 22.5 | 0.00 | 0.00 | 0.00 | 79 | 1005.6 |
| 20260505151617 | 23 | 203 | 17.7 | 24.1 | 0.00 | 0.00 | 0.00 | 80 | 1005.5 |
| 20260505151424 | 23 | 206 | 19.3 | 27.4 | 0.00 | 0.00 | 0.00 | 80 | 1005.6 |
| 20260505151223 | 23 | 199 | 17.7 | 22.5 | 0.00 | 0.00 | 0.00 | 80 | 1005.7 |
| 20260505151021 | 23 | 209 | 17.7 | 25.7 | 0.00 | 0.00 | 0.00 | 79 | 1005.6 |
| 20260505150821 | 23 | 207 | 19.3 | 29.0 | 0.00 | 0.00 | 0.00 | 79 | 1005.6 |
| 20260505150618 | 23 | 205 | 19.3 | 25.7 | 0.00 | 0.00 | 0.00 | 80 | 1005.3 |
| 20260505150417 | 23 | 204 | 19.3 | 25.7 | 0.00 | 0.00 | 0.00 | 80 | 1005.3 |
| 20260505150217 | 23 | 203 | 17.7 | 24.1 | 0.00 | 0.00 | 0.00 | 80 | 1005.4 |
| 20260505140645 | 22 | 207 | 20.9 | 27.4 | 0.00 | 0.00 | 0.00 | 85 | 1005.5 |
| 20260505140444 | 21 | 202 | 16.1 | 20.9 | 0.00 | 0.00 | 0.00 | 86 | 1005.2 |
| 20260505140222 | 21 | 202 | 20.9 | 27.4 | 0.00 | 0.00 | 0.00 | 86 | 1005.4 |
| 20260505130218 | 20 | 185 | 12.9 | 17.7 | 0.00 | 0.00 | 0.00 | 89 | 1005.1 |
| 20260505125020 | 20 | 193 | 17.7 | 25.7 | 0.00 | 0.00 | 0.00 | 90 | 1004.7 |
| 20260505124838 | 20 | 193 | 19.3 | 27.4 | 0.00 | 0.00 | 0.00 | 90 | 1004.8 |
| 20260505124619 | 20 | 201 | 20.9 | 24.1 | 0.00 | 0.00 | 0.00 | 91 | 1005.0 |
| 20260505124425 | 20 | 192 | 16.1 | 22.5 | 0.00 | 0.00 | 0.00 | 91 | 1004.8 |
| 20260505124224 | 20 | 196 | 16.1 | 19.3 | 0.00 | 0.00 | 0.00 | 91 | 1004.8 |
| 20260505124023 | 20 | 195 | 17.7 | 22.5 | 0.00 | 0.00 | 0.00 | 91 | 1004.8 |
| 20260505123821 | 19 | 195 | 16.1 | 22.5 | 0.00 | 0.00 | 0.00 | 91 | 1004.6 |
| 20260505123640 | 19 | 202 | 16.1 | 20.9 | 0.00 | 0.00 | 0.00 | 91 | 1004.8 |
| 20260505123418 | 20 | 193 | 17.7 | 22.5 | 0.00 | 0.00 | 0.00 | 91 | 1004.8 |
| 20260505123216 | 19 | 197 | 17.7 | 22.5 | 0.00 | 0.00 | 0.00 | 91 | 1004.9 |
| 20260505123025 | 19 | 192 | 14.5 | 19.3 | 0.00 | 0.00 | 0.00 | 91 | 1004.8 |
| 20260505122844 | 19 | 200 | 17.7 | 20.9 | 0.00 | 0.00 | 0.00 | 91 | 1004.7 |
| 20260505122622 | 19 | 185 | 14.5 | 17.7 | 0.00 | 0.00 | 0.00 | 91 | 1004.9 |
| 20260505122441 | 19 | 193 | 14.5 | 17.7 | 0.00 | 0.00 | 0.00 | 91 | 1004.7 |
| 20260505122219 | 19 | 199 | 14.5 | 24.1 | 0.00 | 0.00 | 0.00 | 91 | 1004.8 |
| 20260505122018 | 19 | 195 | 14.5 | 19.3 | 0.00 | 0.00 | 0.00 | 91 | 1004.8 |
| 20260505121816 | 19 | 180 | 14.5 | 17.7 | 0.00 | 0.00 | 0.00 | 91 | 1004.6 |
| 20260505121645 | 19 | 185 | 14.5 | 17.7 | 0.00 | 0.00 | 0.00 | 92 | 1004.7 |
| 20260505121426 | 19 | 194 | 16.1 | 19.3 | 0.00 | 0.00 | 0.00 | 91 | 1004.7 |
| 20260505121222 | 19 | 180 | 16.1 | 20.9 | 0.00 | 0.00 | 0.00 | 91 | 1004.8 |
| 20260505121021 | 19 | 178 | 14.5 | 20.9 | 0.00 | 0.00 | 0.00 | 91 | 1004.5 |
| 20260505120819 | 19 | 187 | 16.1 | 24.1 | 0.00 | 0.00 | 0.00 | 91 | 1004.5 |
| 20260505120618 | 19 | 183 | 19.3 | 22.5 | 0.00 | 0.00 | 0.00 | 91 | 1004.4 |
| 20260505120418 | 19 | 188 | 16.1 | 20.9 | 0.00 | 0.00 | 0.00 | 92 | 1004.4 |
| 20260505120225 | 19 | 173 | 19.3 | 27.4 | 0.00 | 0.00 | 0.00 | 91 | 1004.2 |
| 20260505120026 | 19 | 183 | 17.7 | 22.5 | 0.00 | 0.00 | 0.00 | 92 | 1004.5 |
| 20260505115824 | 19 | 181 | 16.1 | 19.3 | 0.00 | 0.00 | 0.00 | 92 | 1004.6 |
| 20260505115621 | 19 | 180 | 17.7 | 20.9 | 0.00 | 0.00 | 0.00 | 92 | 1004.5 |
| 20260505115421 | 19 | 179 | 17.7 | 20.9 | 0.00 | 0.00 | 0.00 | 92 | 1004.5 |
| 20260505115218 | 19 | 183 | 16.1 | 20.9 | 0.00 | 0.00 | 0.00 | 92 | 1004.3 |
| 20260505115016 | 19 | 178 | 14.5 | 19.3 | 0.00 | 0.00 | 0.00 | 92 | 1004.2 |
| 20260505114845 | 19 | 181 | 12.9 | 17.7 | 0.00 | 0.00 | 0.00 | 92 | 1004.3 |
| 20260505114623 | 19 | 182 | 14.5 | 20.9 | 0.00 | 0.00 | 0.00 | 92 | 1004.3 |
| 20260505114424 | 19 | 178 | 14.5 | 16.1 | 0.00 | 0.00 | 0.00 | 92 | 1004.1 |
| 20260505114222 | 19 | 182 | 16.1 | 17.7 | 0.00 | 0.00 | 0.00 | 92 | 1004.4 |
| 20260505114041 | 19 | 179 | 19.3 | 24.1 | 0.00 | 0.00 | 0.00 | 92 | 1004.3 |
| 20260505113818 | 19 | 182 | 14.5 | 17.7 | 0.00 | 0.00 | 0.00 | 92 | 1004.3 |
| 20260505113636 | 19 | 178 | 19.3 | 24.1 | 0.00 | 0.00 | 0.00 | 92 | 1004.2 |
| 20260505113445 | 19 | 178 | 14.5 | 17.7 | 0.00 | 0.00 | 0.00 | 93 | 1003.9 |
| 20260505113223 | 19 | 185 | 14.5 | 19.3 | 0.00 | 0.00 | 0.00 | 92 | 1004.0 |
| 20260505113022 | 19 | 188 | 14.5 | 17.7 | 0.00 | 0.00 | 0.00 | 92 | 1004.2 |
| 20260505112820 | 19 | 183 | 16.1 | 24.1 | 0.00 | 0.00 | 0.00 | 92 | 1004.2 |
| 20260505112619 | 19 | 184 | 16.1 | 19.3 | 0.00 | 0.00 | 0.00 | 92 | 1004.3 |
| 20260505112437 | 19 | 185 | 16.1 | 20.9 | 0.00 | 0.00 | 0.00 | 92 | 1004.3 |
| 20260505112216 | 19 | 178 | 14.5 | 19.3 | 0.00 | 0.00 | 0.00 | 92 | 1004.1 |
| 20260505112025 | 18 | 180 | 14.5 | 19.3 | 0.00 | 0.00 | 0.00 | 93 | 1004.0 |
| 20260505111825 | 18 | 180 | 14.5 | 20.9 | 0.00 | 0.00 | 0.00 | 93 | 1004.2 |
| 20260505111642 | 18 | 177 | 12.9 | 19.3 | 0.00 | 0.00 | 0.00 | 92 | 1004.5 |
| 20260505111420 | 18 | 180 | 16.1 | 19.3 | 0.00 | 0.00 | 0.00 | 93 | 1004.5 |
| 20260505111219 | 18 | 180 | 12.9 | 19.3 | 0.00 | 0.00 | 0.00 | 93 | 1004.4 |
| 20260505111017 | 18 | 180 | 14.5 | 17.7 | 0.00 | 0.00 | 0.00 | 93 | 1004.4 |
| 20260505110816 | 18 | 182 | 12.9 | 16.1 | 0.00 | 0.00 | 0.00 | 93 | 1004.3 |
| 20260505110624 | 18 | 180 | 12.9 | 17.7 | 0.00 | 0.00 | 0.00 | 93 | 1004.3 |
| 20260505110423 | 18 | 177 | 14.5 | 19.3 | 0.00 | 0.00 | 0.00 | 93 | 1004.2 |
| 20260505110224 | 18 | 174 | 12.9 | 16.1 | 0.00 | 0.00 | 0.00 | 93 | 1004.2 |
| 20260505102023 | 19 | 174 | 9.7 | 11.3 | 0.00 | 0.00 | 0.00 | 91 | 1004.3 |
| 20260505101820 | 19 | 176 | 14.5 | 16.1 | 0.00 | 0.00 | 0.00 | 91 | 1004.3 |
| 20260505101618 | 19 | 172 | 12.9 | 17.7 | 0.00 | 0.00 | 0.00 | 91 | 1004.5 |
| 20260505101420 | 19 | 178 | 12.9 | 16.1 | 0.00 | 0.00 | 0.00 | 91 | 1004.6 |
| 20260505101308 | 19 | 177 | 16.1 | 19.3 | 0.00 | 0.00 | 0.00 | 91 | 1004.6 |
| 20260505101024 | 19 | 176 | 14.5 | 17.7 | 0.00 | 0.00 | 0.00 | 91 | 1004.5 |
| 20260505100822 | 19 | 177 | 16.1 | 22.5 | 0.00 | 0.00 | 0.00 | 90 | 1004.5 |
| 20260505100621 | 19 | 173 | 16.1 | 19.3 | 0.00 | 0.00 | 0.00 | 90 | 1004.5 |
| 20260505100422 | 19 | 177 | 16.1 | 19.3 | 0.00 | 0.00 | 0.00 | 90 | 1004.6 |
| 20260505100219 | 19 | 177 | 14.5 | 20.9 | 0.00 | 0.00 | 0.00 | 90 | 1004.6 |
| 20260505100017 | 19 | 175 | 16.1 | 22.5 | 0.00 | 0.00 | 0.00 | 90 | 1004.6 |
| 20260505095825 | 20 | 177 | 17.7 | 20.9 | 0.00 | 0.00 | 0.00 | 90 | 1004.4 |
| 20260505095644 | 19 | 177 | 16.1 | 20.9 | 0.00 | 0.00 | 0.00 | 90 | 1004.6 |
| 20260505095422 | 19 | 176 | 17.7 | 20.9 | 0.00 | 0.00 | 0.00 | 90 | 1004.5 |
| 20260505095241 | 20 | 182 | 17.7 | 24.1 | 0.00 | 0.00 | 0.00 | 89 | 1004.5 |
| 20260505095039 | 20 | 175 | 19.3 | 24.1 | 0.00 | 0.00 | 0.00 | 89 | 1004.4 |
| 20260505094818 | 20 | 175 | 17.7 | 22.5 | 0.00 | 0.00 | 0.00 | 89 | 1004.4 |
| 20260505094616 | 20 | 175 | 19.3 | 24.1 | 0.00 | 0.00 | 0.00 | 89 | 1004.5 |
| 20260505094425 | 20 | 169 | 20.9 | 24.1 | 0.00 | 0.00 | 0.00 | 89 | 1004.6 |
| 20260505094225 | 20 | 173 | 16.1 | 22.5 | 0.00 | 0.00 | 0.00 | 89 | 1004.3 |
| 20260505094042 | 20 | 168 | 14.5 | 19.3 | 0.00 | 0.00 | 0.00 | 88 | 1004.7 |
| 20260505093823 | 20 | 164 | 16.1 | 20.9 | 0.00 | 0.00 | 0.00 | 88 | 1004.6 |
| 20260505093621 | 20 | 171 | 14.5 | 19.3 | 0.00 | 0.00 | 0.00 | 88 | 1004.6 |
| 20260505093440 | 20 | 178 | 16.1 | 19.3 | 0.00 | 0.00 | 0.00 | 88 | 1004.6 |
| 20260505093216 | 20 | 174 | 17.7 | 20.9 | 0.00 | 0.00 | 0.00 | 88 | 1004.7 |
| 20260505093045 | 20 | 168 | 14.5 | 19.3 | 0.00 | 0.00 | 0.00 | 88 | 1004.7 |
| 20260505092823 | 20 | 171 | 16.1 | 19.3 | 0.00 | 0.00 | 0.00 | 88 | 1004.5 |
| 20260505092622 | 20 | 171 | 16.1 | 20.9 | 0.00 | 0.00 | 0.00 | 88 | 1004.6 |
| 20260505092420 | 20 | 175 | 14.5 | 17.7 | 0.00 | 0.00 | 0.00 | 88 | 1004.4 |
| 20260505092239 | 20 | 174 | 12.9 | 17.7 | 0.00 | 0.00 | 0.00 | 88 | 1004.6 |
| 20260505092018 | 20 | 176 | 16.1 | 20.9 | 0.00 | 0.00 | 0.00 | 88 | 1004.5 |
| 20260505091816 | 20 | 172 | 14.5 | 20.9 | 0.00 | 0.00 | 0.00 | 88 | 1004.5 |
| 20260505091625 | 20 | 173 | 16.1 | 20.9 | 0.00 | 0.00 | 0.00 | 87 | 1004.5 |
| 20260505091424 | 20 | 172 | 16.1 | 19.3 | 0.00 | 0.00 | 0.00 | 87 | 1004.5 |
| 20260505091223 | 20 | 173 | 12.9 | 16.1 | 0.00 | 0.00 | 0.00 | 88 | 1004.6 |
| 20260505091020 | 20 | 171 | 12.9 | 16.1 | 0.00 | 0.00 | 0.00 | 87 | 1004.5 |
| 20260505090841 | 20 | 170 | 16.1 | 20.9 | 0.00 | 0.00 | 0.00 | 87 | 1004.6 |
| 20260505090617 | 20 | 172 | 14.5 | 17.7 | 0.00 | 0.00 | 0.00 | 87 | 1004.6 |
| 20260505090416 | 20 | 170 | 14.5 | 20.9 | 0.00 | 0.00 | 0.00 | 86 | 1004.6 |
| 20260505090225 | 20 | 170 | 14.5 | 17.7 | 0.00 | 0.00 | 0.00 | 86 | 1004.6 |
| 20260505090023 | 20 | 172 | 14.5 | 20.9 | 0.00 | 0.00 | 0.00 | 86 | 1004.9 |
| 20260505085824 | 20 | 172 | 19.3 | 22.5 | 0.00 | 0.00 | 0.00 | 86 | 1004.7 |
| 20260505085641 | 20 | 166 | 17.7 | 20.9 | 0.00 | 0.00 | 0.00 | 86 | 1004.6 |
| 20260505085421 | 20 | 173 | 14.5 | 19.3 | 0.00 | 0.00 | 0.00 | 86 | 1004.8 |
| 20260505085238 | 20 | 166 | 17.7 | 25.7 | 0.00 | 0.00 | 0.00 | 86 | 1004.6 |
| 20260505085016 | 20 | 174 | 19.3 | 22.5 | 0.00 | 0.00 | 0.00 | 86 | 1004.8 |
| 20260505084826 | 20 | 177 | 14.5 | 17.7 | 0.00 | 0.00 | 0.00 | 86 | 1004.8 |
| 20260505084623 | 20 | 170 | 17.7 | 24.1 | 0.00 | 0.00 | 0.00 | 85 | 1004.7 |
| 20260505084422 | 20 | 167 | 14.5 | 17.7 | 0.00 | 0.00 | 0.00 | 86 | 1004.8 |
| 20260505084220 | 20 | 174 | 16.1 | 19.3 | 0.00 | 0.00 | 0.00 | 85 | 1004.8 |
| 20260505084019 | 20 | 173 | 17.7 | 22.5 | 0.00 | 0.00 | 0.00 | 85 | 1004.9 |
| 20260505083819 | 20 | 176 | 14.5 | 19.3 | 0.00 | 0.00 | 0.00 | 85 | 1004.9 |
| 20260505083618 | 20 | 186 | 12.9 | 19.3 | 0.00 | 0.00 | 0.00 | 86 | 1004.9 |
| 20260505083445 | 20 | 170 | 16.1 | 19.3 | 0.00 | 0.00 | 0.00 | 85 | 1004.6 |
| 20260505083224 | 20 | 167 | 14.5 | 17.7 | 0.00 | 0.00 | 0.00 | 86 | 1004.6 |
| 20260505083022 | 20 | 171 | 16.1 | 20.9 | 0.00 | 0.00 | 0.00 | 85 | 1004.7 |
| 20260505082822 | 20 | 177 | 14.5 | 17.7 | 0.00 | 0.00 | 0.00 | 85 | 1004.7 |
| 20260505082619 | 20 | 168 | 19.3 | 24.1 | 0.00 | 0.00 | 0.00 | 85 | 1004.6 |
| 20260505082417 | 20 | 170 | 12.9 | 19.3 | 0.00 | 0.00 | 0.00 | 85 | 1004.7 |
| 20260505082216 | 20 | 163 | 14.5 | 19.3 | 0.00 | 0.00 | 0.00 | 85 | 1004.6 |
| 20260505082106 | 21 | 160 | 14.5 | 20.9 | 0.00 | 0.00 | 0.00 | 84 | 1004.6 |
| 20260505081823 | 21 | 155 | 14.5 | 20.9 | 0.00 | 0.00 | 0.00 | 84 | 1004.6 |
| 20260505081621 | 21 | 159 | 14.5 | 20.9 | 0.00 | 0.00 | 0.00 | 84 | 1004.7 |